Location: Appleton
(44.2618°N, 88.4157°W)
Time: 11:57:06
(UTC+00:00)

S-56A Canister/Altair - Pass Details

Date: 07 March 2021
Orbit: 632 x 2500 km, 38.9° (Epoch: 18 April)

Event Time Altitude Azimuth Distance (km) Brightness Sun altitude
Rises 15:25:54 0° 172° (S) 4,771 12.3 29.2°
Reaches altitude 10° 15:31:24 10° 148° (SSE) 4,210 12.8 29.9°
Maximum altitude 15:36:00 13° 124° (ESE) 4,253 12.9 30.5°
Drops below altitude 10° 15:41:05 10° 101° (E) 4,791 12.5 31.1°
Sets 15:48:20 0° 79° (E) 6,070 12.5 32.0°
